NILESAT 201

Last updated on Sat Sep 12 2026 00:03:01 GMT+0000 (Coordinated Universal Time)

1 36830U 10037A 26254.36618149 -.00000075 00000+0 00000+0 0 9999 2 36830 0.0238 206.7457 0005548 327.5936 300.8841 1.00271150 59244
UTC large
Height (km)
Speed (km/s)
/
Latitude / Longitude
Inclination (degrees)
Orbital Period (minutes)
Azimuth
Elevation
Range (km)
Doppler Factor

Next 0 passes for location: London (51.5072 / 0.1276)

No passes found over London.